Torna al catalogo

USA 576

AttivoMilitareVLEO
NORAD 67488·PAYLOAD·🇺🇸 United States

Lanciato Jan 17, 2026 da Vandenberg Space Force Base

Loading…

Prossimi Passaggi (prossime 24 ore)

TLE

ObsoletoSource: Mike McCants

Epoca: Jul 15, 2026, 01:05 UTC

1 67488U 26011E   26196.04533004 0.00000000  00000-0  00000-0 0    09
2 67488  70.0260 167.0838 0002000 195.2748 164.7251 14.96713600    04

Traccia USA 576 in tempo reale con AllMySat

Download on the App Store